Starlink 31900

operational
NORAD ID: 59942 Int'l Des: 2024-106 Owner: SPXS Country: US Constellation: starlink
LEOCIRCULAR

关于 Starlink 31900

正在加载描述...

实时位置

正在加载3D地球...

即将过境

高度历史

Altitude vs Time

uPlot chart will show altitude changes over time

两行轨道根数

1 59942U 24106W 25256.27723331 .00001804 00000-0 75028-4 0 9999
2 59942 42.9992 254.1269 0000791 265.3844 94.6917 15.27584947 73394
Epoch: Sep 13, 2025 • Age: 53 hours

当前状态

高度 495.4 km
速度 7.62 km/s
星下点 -41.94°S, 33.05°W
发射日期 Jun 1, 2024
运行时间 1.2 years
类型 internet

技术详情

分类 Payload
质量 730.00 kg
干质量 700.00 kg
总质量 730.00 kg
长度 0.30 m
直径 4.10 m
跨度 29.00 m
形状 Box + pan
制造商 SPXS
平台类型 Starlink V2M
阶段状态 In Orbit
所有者/国家 SPXS/US

大型星座

Loading constellations...